Tracking 30106 objects as of 24-Jan-2025
HD Live streaming from Space Station
objects crossing your sky now

FREGAT R/B

Track FREGAT R/B now!


NORAD ID: 41551
Int'l Code: 2016-030C
Perigee: 23,506.0 km
Apogee: 23,628.0 km
Inclination: 55.2 °
Period: 859.2 minutes
Semi major axis: 29937 km
RCS: Unknown
Launch date: May 24, 2016
Source: Commonwealth of Independent States (former USSR) (CIS)
Launch site: FRENCH GUIANA (FRGUI)

Note: This is a ROCKET BODY
Your satellite tracking list
Your tracking list is empty




NASA's NSSDC Master Catalog

Two Line Element Set (TLE):
1 41551U 16030C   25020.58681398  .00000060  00000-0  00000-0 0  9999
2 41551  55.1742 238.7016 0020374 229.7900 130.0916  1.67598221 53036
Source of the keplerian elements: AFSPC